DH1NAI Weather Reports


time (UTC)temp
F
wind
direction
speed
knots
gust
knots
rain 1hr
in
rain 24hr
in
rain mn
in
humidity
%
barometer
mb
20220525133121 62 0 0.0 0.0 0.00 0.00 0.00 55 947.5
20220525132145 63 0 0.0 0.0 0.00 0.00 0.00 55 947.6
20220525131203 63 0 0.0 0.0 0.00 0.00 0.00 56 947.5
20220525130215 62 0 0.0 0.0 0.00 0.00 0.00 55 947.6
20220525125232 61 0 0.0 0.0 0.00 0.00 0.00 57 947.6
20220525124254 61 0 0.0 0.0 0.00 0.00 0.00 56 947.6
20220525123315 62 0 0.0 0.0 0.00 0.00 0.00 52 947.5
20220525122334 63 0 0.0 0.0 0.00 0.00 0.00 55 947.5
20220525121351 62 0 0.0 0.0 0.00 0.00 0.00 54 947.4
20220525120402 60 0 0.0 0.0 0.00 0.00 0.00 57 947.4
20220525115419 60 0 0.0 0.0 0.00 0.00 0.00 55 947.3
20220525114437 61 0 0.0 0.0 0.00 0.00 0.00 55 947.4
20220525113456 62 0 0.0 0.0 0.00 0.00 0.00 57 947.4
20220525112512 62 0 0.0 0.0 0.00 0.00 0.00 53 947.5
20220525111533 62 0 0.0 0.0 0.00 0.00 0.00 53 947.5
20220525110542 61 0 0.0 0.0 0.00 0.00 0.00 56 947.5
20220525105558 60 0 0.0 0.0 0.00 0.00 0.00 59 947.7
20220525104615 60 0 0.0 0.0 0.00 0.00 0.00 59 947.6
20220525103632 60 0 0.0 0.0 0.00 0.00 0.00 56 947.6
20220525102650 60 0 0.0 0.0 0.00 0.00 0.00 55 947.5
20220525101706 59 0 0.0 0.0 0.00 0.00 0.00 57 947.6
20220525100722 59 0 0.0 0.0 0.00 0.00 0.00 60 947.6
20220525095739 58 0 0.0 0.0 0.00 0.00 0.00 61 947.7
20220525094758 59 0 0.0 0.0 0.00 0.00 0.00 60 947.5
20220525093816 60 0 0.0 0.0 0.00 0.00 0.00 61 947.4
20220525092833 59 0 0.0 0.0 0.00 0.00 0.00 59 947.4
20220525091850 59 0 0.0 0.0 0.00 0.00 0.00 61 947.4
20220525090905 59 0 0.0 0.0 0.00 0.00 0.00 59 947.3
20220525085925 58 0 0.0 0.0 0.00 0.00 0.00 60 947.3
20220525084944 58 0 0.0 0.0 0.00 0.00 0.00 62 947.2
20220525083959 58 0 0.0 0.0 0.00 0.00 0.00 62 947.2
20220525083016 57 0 0.0 0.0 0.00 0.00 0.00 66 947.3
20220525082036 57 0 0.0 0.0 0.00 0.00 0.00 68 947.4
20220525081052 56 0 0.0 0.0 0.00 0.00 0.00 72 947.4
20220525080115 56 0 0.0 0.0 0.00 0.00 0.00 72 947.5
20220525075134 56 0 0.0 0.0 0.00 0.00 0.00 71 947.4
20220525074145 56 0 0.0 0.0 0.00 0.00 0.00 69 947.3
20220525073207 55 0 0.0 0.0 0.00 0.00 0.00 69 947.3
20220525072224 55 0 0.0 0.0 0.00 0.00 0.00 75 947.2
20220525071240 55 0 0.0 0.0 0.00 0.00 0.00 76 947.1
20220525070253 54 0 0.0 0.0 0.00 0.00 0.00 85 947.1
20220525065316 54 0 0.0 0.0 0.00 0.00 0.00 88 947.0
20220525064329 54 0 0.0 0.0 0.00 0.00 0.00 91 946.9
20220525063347 53 0 0.0 0.0 0.00 0.00 0.00 93 946.9
20220525061425 52 0 0.0 0.0 0.00 0.00 0.00 10 946.7
20220525060442 52 0 0.0 0.0 0.00 0.00 0.00 10 946.5
20220525055500 51 0 0.0 0.0 0.00 0.00 0.00 10 946.4
20220525054519 51 0 0.0 0.0 0.00 0.00 0.00 98 946.2
20220525053537 51 0 0.0 0.0 0.00 0.00 0.00 10 946.2
20220525052555 51 0 0.0 0.0 0.00 0.00 0.00 10 946.4
20220525051616 50 0 0.0 0.0 0.00 0.00 0.00 10 946.3
20220525050631 50 0 0.0 0.0 0.00 0.00 0.00 10 946.1
20220525045650 50 0 0.0 0.0 0.00 0.00 0.00 10 946.0
20220525044710 50 0 0.0 0.0 0.00 0.00 0.00 10 945.9
20220525043727 49 0 0.0 0.0 0.00 0.00 0.00 10 945.8
20220525042746 50 0 0.0 0.0 0.00 0.00 0.00 10 945.8
20220525041804 49 0 0.0 0.0 0.00 0.00 0.00 10 945.8
20220525040823 49 0 0.0 0.0 0.00 0.00 0.00 10 945.7
20220525035842 49 0 0.0 0.0 0.00 0.00 0.00 10 945.6
20220525034900 49 0 0.0 0.0 0.00 0.00 0.00 10 945.7
20220525033921 49 0 0.0 0.0 0.00 0.00 0.00 10 945.5
20220525032939 48 0 0.0 0.0 0.00 0.00 0.00 10 945.4
20220525032001 49 0 0.0 0.0 0.00 0.00 0.00 10 945.4
20220525031014 49 0 0.0 0.0 0.00 0.00 0.00 10 945.3
20220525030032 49 0 0.0 0.0 0.00 0.00 0.00 10 945.2
20220525025053 48 0 0.0 0.0 0.00 0.00 0.00 10 945.0
20220525024111 49 0 0.0 0.0 0.00 0.00 0.00 99 945.0
20220525023130 48 0 0.0 0.0 0.00 0.00 0.00 10 945.0
20220525022147 48 0 0.0 0.0 0.00 0.00 0.00 10 944.9
20220525021206 48 0 0.0 0.0 0.00 0.00 0.00 10 944.8
20220525020225 49 0 0.0 0.0 0.00 0.00 0.00 97 944.7
20220525015243 48 0 0.0 0.0 0.00 0.00 0.00 10 944.7
20220525014304 48 0 0.0 0.0 0.00 0.00 0.00 10 944.8
20220525013321 48 0 0.0 0.0 0.00 0.00 0.00 10 944.9
20220525012342 48 0 0.0 0.0 0.00 0.00 0.00 99 944.9
20220525011359 48 0 0.0 0.0 0.00 0.00 0.00 96 944.8
20220525010417 48 0 0.0 0.0 0.00 0.00 0.00 96 944.7
20220525005438 47 0 0.0 0.0 0.00 0.00 0.00 98 944.7
20220525004454 47 0 0.0 0.0 0.00 0.00 0.00 96 944.8
20220525003514 47 0 0.0 0.0 0.00 0.00 0.00 94 944.8
20220525002532 47 0 0.0 0.0 0.00 0.00 0.00 94 945.0
20220525001550 46 0 0.0 0.0 0.00 0.00 0.00 93 944.9
20220525000609 46 0 0.0 0.0 0.00 0.00 0.00 92 944.8
20220524235626 46 0 0.0 0.0 0.00 0.00 0.00 90 944.7
20220524234644 45 0 0.0 0.0 0.00 0.00 0.00 90 944.5
20220524233703 45 0 0.0 0.0 0.00 0.00 0.00 87 944.6
20220524232722 45 0 0.0 0.0 0.00 0.00 0.00 90 944.6
20220524231741 46 0 0.0 0.0 0.00 0.00 0.00 88 944.5
20220524230800 45 0 0.0 0.0 0.00 0.00 0.00 89 944.7
20220524225819 46 0 0.0 0.0 0.00 0.00 0.00 89 944.8
20220524224837 45 0 0.0 0.0 0.00 0.00 0.00 89 944.8
20220524223858 46 0 0.0 0.0 0.00 0.00 0.00 90 944.8
20220524222916 46 0 0.0 0.0 0.00 0.00 0.00 89 944.5
20220524221935 46 0 0.0 0.0 0.00 0.00 0.00 88 944.5
20220524220955 46 0 0.0 0.0 0.00 0.00 0.00 89 944.5
20220524220014 46 0 0.0 0.0 0.00 0.00 0.00 89 944.4
20220524215030 47 0 0.0 0.0 0.00 0.00 0.00 86 944.4
20220524214048 46 0 0.0 0.0 0.00 0.00 0.00 88 944.1
20220524213110 47 0 0.0 0.0 0.00 0.00 0.00 88 944.1
20220524212126 48 0 0.0 0.0 0.00 0.00 0.00 88 944.1
20220524211144 48 0 0.0 0.0 0.00 0.00 0.00 87 944.1
20220524210202 48 0 0.0 0.0 0.00 0.00 0.00 87 944.1
20220524205222 48 0 0.0 0.0 0.00 0.00 0.00 85 944.1
20220524204241 48 0 0.0 0.0 0.00 0.00 0.00 86 944.2
20220524203303 49 0 0.0 0.0 0.00 0.00 0.00 86 944.2
20220524202320 49 0 0.0 0.0 0.00 0.00 0.00 86 944.1
20220524201344 50 0 0.0 0.0 0.00 0.00 0.00 86 944.0
20220524200357 50 0 0.0 0.0 0.00 0.00 0.00 84 943.8
20220524195416 50 0 0.0 0.0 0.00 0.00 0.00 85 943.7
20220524194442 52 0 0.0 0.0 0.00 0.00 0.00 83 943.5
20220524193456 53 0 0.0 0.0 0.00 0.00 0.00 83 943.5
20220524192517 54 0 0.0 0.0 0.00 0.00 0.00 83 943.3
20220524191537 54 0 0.0 0.0 0.00 0.00 0.00 82 943.3
20220524190552 55 0 0.0 0.0 0.00 0.00 0.00 78 943.2
20220524185618 57 0 0.0 0.0 0.00 0.00 0.00 69 942.9
20220524184639 59 0 0.0 0.0 0.00 0.00 0.00 65 942.7
20220524183651 59 0 0.0 0.0 0.00 0.00 0.00 65 942.6
20220524182710 59 0 0.0 0.0 0.00 0.00 0.00 64 942.4
20220524181729 60 0 0.0 0.0 0.00 0.00 0.00 65 942.3
20220524180744 60 0 0.0 0.0 0.00 0.00 0.00 61 942.2
20220524175803 60 0 0.0 0.0 0.00 0.00 0.00 59 942.1
20220524174827 61 0 0.0 0.0 0.00 0.00 0.00 62 942.0
20220524173840 61 0 0.0 0.0 0.00 0.00 0.00 60 941.9
20220524172903 61 0 0.0 0.0 0.00 0.00 0.00 62 941.9
20220524171920 61 0 0.0 0.0 0.00 0.00 0.00 62 941.9
20220524170936 61 0 0.0 0.0 0.00 0.00 0.00 62 941.8
20220524165957 61 0 0.0 0.0 0.00 0.00 0.00 62 941.7
20220524165015 61 0 0.0 0.0 0.00 0.00 0.00 59 941.6
20220524164032 61 0 0.0 0.0 0.00 0.00 0.00 59 941.5
20220524163049 62 0 0.0 0.0 0.00 0.00 0.00 60 941.4
20220524162108 62 0 0.0 0.0 0.00 0.00 0.00 60 941.3
20220524161124 62 0 0.0 0.0 0.00 0.00 0.00 63 941.3
20220524160141 62 0 0.0 0.0 0.00 0.00 0.00 63 941.2
20220524155200 63 0 0.0 0.0 0.00 0.00 0.00 62 941.1
20220524154217 63 0 0.0 0.0 0.00 0.00 0.00 61 941.0
20220524153235 62 0 0.0 0.0 0.00 0.00 0.00 61 941.0
20220524152253 62 0 0.0 0.0 0.00 0.00 0.00 61 941.0
20220524151309 62 0 0.0 0.0 0.00 0.00 0.00 63 941.0
20220524150328 64 0 0.0 0.0 0.00 0.00 0.00 62 941.0
20220524145344 62 0 0.0 0.0 0.00 0.00 0.00 65 941.0
20220524144404 62 0 0.0 0.0 0.00 0.00 0.00 64 940.9
20220524143419 62 0 0.0 0.0 0.00 0.00 0.00 59 940.8
20220524142435 63 0 0.0 0.0 0.00 0.00 0.00 59 940.7
20220524141450 63 0 0.0 0.0 0.00 0.00 0.00 63 940.5
20220524140504 62 0 0.0 0.0 0.00 0.00 0.00 64 940.4
20220524135521 61 0 0.0 0.0 0.00 0.00 0.00 65 940.6
20220524134540 62 0 0.0 0.0 0.00 0.00 0.00 65 940.4
20220524133559 62 0 0.0 0.0 0.00 0.00 0.00 66 940.4